| time (UTC) | temp F | wind direction | speed MPH | gust MPH | rain 1hr in | rain 24hr in | rain mn in | humidity % | barometer mb |
| 20260905231400 | 90 | 341 | 0.0 | 0.0 | 0.00 | 0.00 | 0.00 | 74 | 1006.4 |
| 20260905230833 | 91 | 341 | 0.0 | 0.0 | 0.00 | 0.00 | 0.00 | 71 | 1006.6 |
| 20260905230319 | 91 | 357 | 0.0 | 0.0 | 0.00 | 0.00 | 0.00 | 72 | 1006.4 |
| 20260905225800 | 92 | 357 | 0.0 | 1.0 | 0.00 | 0.00 | 0.00 | 68 | 1006.7 |
| 20260905225240 | 93 | 47 | 0.0 | 1.0 | 0.00 | 0.00 | 0.00 | 68 | 1006.3 |
| 20260905224720 | 92 | 203 | 0.0 | 1.0 | 0.00 | 0.00 | 0.00 | 67 | 1006.3 |
| 20260905224200 | 93 | 209 | 0.0 | 0.0 | 0.00 | 0.00 | 0.00 | 68 | 1006.2 |
| 20260905223119 | 94 | 226 | 0.0 | 1.0 | 0.00 | 0.00 | 0.00 | 65 | 1006.2 |
| 20260905222600 | 93 | 96 | 0.0 | 0.0 | 0.00 | 0.00 | 0.00 | 65 | 1006.7 |
| 20260905222040 | 93 | 110 | 0.0 | 0.0 | 0.00 | 0.00 | 0.00 | 68 | 1006.2 |
| 20260905221519 | 94 | 311 | 0.0 | 1.0 | 0.00 | 0.00 | 0.00 | 64 | 1006.5 |
| 20260905220440 | 95 | 219 | 0.0 | 1.0 | 0.00 | 0.00 | 0.00 | 63 | 1006.4 |
| 20260905215919 | 96 | 277 | 0.0 | 1.0 | 0.00 | 0.00 | 0.00 | 61 | 1006.4 |
| 20260905215400 | 95 | 272 | 0.0 | 1.0 | 0.00 | 0.00 | 0.00 | 59 | 1006.3 |
| 20260905214840 | 95 | 229 | 1.0 | 1.0 | 0.00 | 0.00 | 0.00 | 60 | 1006.4 |
| 20260905214320 | 95 | 62 | 0.0 | 2.0 | 0.00 | 0.00 | 0.00 | 62 | 1006.4 |
| 20260905213800 | 96 | 301 | 0.0 | 0.0 | 0.00 | 0.00 | 0.00 | 62 | 1006.3 |
| 20260905213240 | 96 | 285 | 1.0 | 5.0 | 0.00 | 0.00 | 0.00 | 60 | 1006.3 |
| 20260905212200 | 96 | 235 | 0.0 | 0.0 | 0.00 | 0.00 | 0.00 | 59 | 1006.3 |
| 20260905211633 | 97 | 251 | 0.0 | 1.0 | 0.00 | 0.00 | 0.00 | 57 | 1006.2 |
| 20260905211120 | 97 | 43 | 1.0 | 2.0 | 0.00 | 0.00 | 0.00 | 58 | 1006.5 |
| 20260905210600 | 97 | 344 | 2.0 | 3.0 | 0.00 | 0.00 | 0.00 | 55 | 1006.4 |
| 20260905205520 | 96 | 276 | 1.0 | 2.0 | 0.00 | 0.00 | 0.00 | 60 | 1006.5 |
| 20260905205000 | 96 | 244 | 1.0 | 1.0 | 0.00 | 0.00 | 0.00 | 56 | 1006.6 |
| 20260905204433 | 96 | 281 | 4.0 | 5.0 | 0.00 | 0.00 | 0.00 | 56 | 1006.3 |
| 20260905203920 | 96 | 276 | 4.0 | 5.0 | 0.00 | 0.00 | 0.00 | 55 | 1006.8 |
| 20260905202834 | 96 | 324 | 0.0 | 0.0 | 0.00 | 0.00 | 0.00 | 58 | 1007.0 |
| 20260905202320 | 95 | 338 | 2.0 | 3.0 | 0.00 | 0.00 | 0.00 | 61 | 1006.8 |
| 20260905201800 | 95 | 242 | 2.0 | 4.0 | 0.00 | 0.00 | 0.00 | 59 | 1007.0 |
| 20260905201233 | 96 | 51 | 0.0 | 0.0 | 0.00 | 0.00 | 0.00 | 57 | 1006.9 |
| 20260905200720 | 96 | 52 | 0.0 | 1.0 | 0.00 | 0.00 | 0.00 | 56 | 1007.0 |
| 20260905200200 | 97 | 237 | 3.0 | 5.0 | 0.00 | 0.00 | 0.00 | 55 | 1006.8 |
| 20260905195633 | 96 | 161 | 0.0 | 2.0 | 0.00 | 0.00 | 0.00 | 57 | 1007.1 |
| 20260905195120 | 96 | 260 | 1.0 | 3.0 | 0.00 | 0.00 | 0.00 | 56 | 1006.9 |
| 20260905194600 | 97 | 281 | 3.0 | 4.0 | 0.00 | 0.00 | 0.00 | 54 | 1007.1 |
| 20260905194033 | 97 | 342 | 2.0 | 3.0 | 0.00 | 0.00 | 0.00 | 54 | 1007.1 |
| 20260905193520 | 96 | 157 | 2.0 | 3.0 | 0.00 | 0.00 | 0.00 | 56 | 1006.9 |
| 20260905193000 | 96 | 252 | 4.0 | 5.0 | 0.00 | 0.00 | 0.00 | 56 | 1007.1 |
| 20260905191400 | 96 | 271 | 0.0 | 0.0 | 0.00 | 0.00 | 0.00 | 57 | 1007.3 |
| 20260905190833 | 96 | 333 | 2.0 | 3.0 | 0.00 | 0.00 | 0.00 | 55 | 1007.3 |
| 20260905190320 | 97 | 264 | 3.0 | 6.0 | 0.00 | 0.00 | 0.00 | 54 | 1007.2 |
| 20260905185800 | 96 | 282 | 2.0 | 2.0 | 0.00 | 0.00 | 0.00 | 55 | 1007.3 |
| 20260905185233 | 96 | 264 | 5.0 | 6.0 | 0.00 | 0.00 | 0.00 | 56 | 1007.4 |
| 20260905184720 | 96 | 249 | 2.0 | 3.0 | 0.00 | 0.00 | 0.00 | 56 | 1007.5 |
| 20260905183633 | 96 | 308 | 4.0 | 6.0 | 0.00 | 0.00 | 0.00 | 55 | 1007.7 |
| 20260905183120 | 96 | 234 | 3.0 | 4.0 | 0.00 | 0.00 | 0.00 | 56 | 1007.5 |
| 20260905182600 | 96 | 243 | 2.0 | 2.0 | 0.00 | 0.00 | 0.00 | 56 | 1007.6 |
| 20260905182033 | 95 | 216 | 1.0 | 1.0 | 0.00 | 0.00 | 0.00 | 58 | 1007.9 |
| 20260905181520 | 95 | 248 | 2.0 | 3.0 | 0.00 | 0.00 | 0.00 | 57 | 1008.0 |
| 20260905181000 | 95 | 0 | 0.0 | 1.0 | 0.00 | 0.00 | 0.00 | 61 | 1007.9 |
| 20260905180433 | 95 | 266 | 4.0 | 4.0 | 0.00 | 0.00 | 0.00 | 62 | 1008.1 |
| 20260905175920 | 94 | 18 | 2.0 | 4.0 | 0.00 | 0.00 | 0.00 | 61 | 1008.0 |
| 20260905174833 | 95 | 300 | 2.0 | 2.0 | 0.00 | 0.00 | 0.00 | 61 | 1008.1 |
| 20260905174320 | 94 | 274 | 5.0 | 6.0 | 0.00 | 0.00 | 0.00 | 62 | 1008.1 |
| 20260905173800 | 94 | 236 | 2.0 | 3.0 | 0.00 | 0.00 | 0.00 | 62 | 1008.1 |
| 20260905173233 | 94 | 262 | 2.0 | 3.0 | 0.00 | 0.00 | 0.00 | 63 | 1008.2 |
| 20260905172720 | 95 | 240 | 2.0 | 4.0 | 0.00 | 0.00 | 0.00 | 62 | 1008.2 |
| 20260905172200 | 94 | 273 | 0.0 | 0.0 | 0.00 | 0.00 | 0.00 | 61 | 1008.3 |
| 20260905171633 | 94 | 251 | 4.0 | 4.0 | 0.00 | 0.00 | 0.00 | 61 | 1008.3 |
| 20260905171120 | 94 | 230 | 1.0 | 2.0 | 0.00 | 0.00 | 0.00 | 62 | 1008.3 |
| 20260905170600 | 94 | 215 | 2.0 | 3.0 | 0.00 | 0.00 | 0.00 | 64 | 1008.5 |
| 20260905170033 | 94 | 266 | 3.0 | 4.0 | 0.00 | 0.00 | 0.00 | 62 | 1008.6 |
| 20260905165520 | 94 | 251 | 1.0 | 2.0 | 0.00 | 0.00 | 0.00 | 65 | 1008.5 |
| 20260905164433 | 93 | 251 | 0.0 | 1.0 | 0.00 | 0.00 | 0.00 | 65 | 1008.5 |
| 20260905163904 | 93 | 243 | 0.0 | 0.0 | 0.00 | 0.00 | 0.00 | 65 | 1008.6 |
| 20260905163333 | 93 | 210 | 2.0 | 3.0 | 0.00 | 0.00 | 0.00 | 64 | 1008.9 |
| 20260905162824 | 93 | 163 | 0.0 | 1.0 | 0.00 | 0.00 | 0.00 | 64 | 1008.8 |
| 20260905162306 | 93 | 215 | 1.0 | 2.0 | 0.00 | 0.00 | 0.00 | 64 | 1008.8 |
| 20260905161733 | 93 | 142 | 0.0 | 0.0 | 0.00 | 0.00 | 0.00 | 64 | 1008.9 |
| 20260905161224 | 92 | 94 | 0.0 | 0.0 | 0.00 | 0.00 | 0.00 | 65 | 1008.9 |
| 20260905160705 | 92 | 92 | 0.0 | 1.0 | 0.00 | 0.00 | 0.00 | 65 | 1008.8 |
| 20260905155624 | 91 | 87 | 0.0 | 1.0 | 0.00 | 0.00 | 0.00 | 69 | 1008.9 |
| 20260905155105 | 90 | 87 | 2.0 | 2.0 | 0.00 | 0.00 | 0.00 | 69 | 1008.9 |
| 20260905154533 | 90 | 83 | 0.0 | 0.0 | 0.00 | 0.00 | 0.00 | 71 | 1008.9 |
| 20260905154024 | 89 | 176 | 2.0 | 3.0 | 0.00 | 0.00 | 0.00 | 71 | 1008.8 |
| 20260905153504 | 89 | 141 | 3.0 | 4.0 | 0.00 | 0.00 | 0.00 | 72 | 1008.8 |
| 20260905152933 | 90 | 115 | 0.0 | 0.0 | 0.00 | 0.00 | 0.00 | 72 | 1008.9 |
| 20260905152424 | 88 | 148 | 1.0 | 2.0 | 0.00 | 0.00 | 0.00 | 70 | 1009.0 |
| 20260905151904 | 89 | 111 | 0.0 | 2.0 | 0.00 | 0.00 | 0.00 | 71 | 1009.1 |
| 20260905151333 | 88 | 128 | 2.0 | 3.0 | 0.00 | 0.00 | 0.00 | 72 | 1009.1 |
| 20260905150304 | 89 | 144 | 1.0 | 3.0 | 0.00 | 0.00 | 0.00 | 73 | 1009.1 |
| 20260905145744 | 88 | 42 | 2.0 | 3.0 | 0.00 | 0.00 | 0.00 | 73 | 1009.2 |
| 20260905145233 | 88 | 179 | 0.0 | 1.0 | 0.00 | 0.00 | 0.00 | 74 | 1009.2 |
| 20260905144720 | 88 | 222 | 0.0 | 0.0 | 0.00 | 0.00 | 0.00 | 76 | 1009.0 |
| 20260905144201 | 88 | 222 | 0.0 | 0.0 | 0.00 | 0.00 | 0.00 | 74 | 1009.0 |
| 20260905143633 | 90 | 222 | 0.0 | 0.0 | 0.00 | 0.00 | 0.00 | 72 | 1008.9 |
| 20260905143120 | 89 | 222 | 0.0 | 0.0 | 0.00 | 0.00 | 0.00 | 73 | 1008.6 |
| 20260905142600 | 89 | 222 | 0.0 | 0.0 | 0.00 | 0.00 | 0.00 | 73 | 1008.9 |
| 20260905142033 | 89 | 222 | 0.0 | 0.0 | 0.00 | 0.00 | 0.00 | 72 | 1008.8 |
| 20260905141520 | 87 | 222 | 0.0 | 0.0 | 0.00 | 0.00 | 0.00 | 73 | 1008.8 |
| 20260905141000 | 87 | 223 | 0.0 | 1.0 | 0.00 | 0.00 | 0.00 | 76 | 1008.8 |
| 20260905140433 | 87 | 222 | 0.0 | 0.0 | 0.00 | 0.00 | 0.00 | 78 | 1008.9 |
| 20260905135920 | 85 | 223 | 0.0 | 0.0 | 0.00 | 0.00 | 0.00 | 78 | 1008.8 |
| 20260905135401 | 85 | 223 | 0.0 | 0.0 | 0.00 | 0.00 | 0.00 | 80 | 1008.8 |
| 20260905134833 | 85 | 223 | 0.0 | 0.0 | 0.00 | 0.00 | 0.00 | 78 | 1008.7 |
| 20260905134320 | 84 | 223 | 0.0 | 0.0 | 0.00 | 0.00 | 0.00 | 79 | 1008.8 |
| 20260905133233 | 82 | 223 | 0.0 | 0.0 | 0.00 | 0.00 | 0.00 | 84 | 1008.6 |
| 20260905132633 | 81 | 223 | 0.0 | 0.0 | 0.00 | 0.00 | 0.00 | 90 | 1008.8 |
| 20260905131533 | 80 | 223 | 0.0 | 0.0 | 0.00 | 0.00 | 0.00 | 98 | 1008.9 |
| 20260905131016 | 78 | 223 | 0.0 | 0.0 | 0.00 | 0.00 | 0.00 | 99 | 1008.9 |
| 20260905130456 | 78 | 223 | 0.0 | 0.0 | 0.00 | 0.00 | 0.00 | 99 | 1008.9 |
| 20260905125933 | 77 | 223 | 0.0 | 0.0 | 0.00 | 0.00 | 0.00 | 99 | 1008.7 |
| 20260905125333 | 76 | 223 | 0.0 | 0.0 | 0.00 | 0.00 | 0.00 | 99 | 1008.8 |
| 20260905124733 | 75 | 223 | 0.0 | 0.0 | 0.00 | 0.00 | 0.00 | 99 | 1008.7 |
| 20260905124133 | 74 | 223 | 0.0 | 0.0 | 0.00 | 0.00 | 0.00 | 99 | 1009.0 |
| 20260905123533 | 74 | 223 | 0.0 | 0.0 | 0.00 | 0.00 | 0.00 | 99 | 1008.8 |
| 20260905123033 | 73 | 223 | 0.0 | 0.0 | 0.00 | 0.00 | 0.00 | 99 | 1009.0 |
| 20260905122513 | 72 | 223 | 0.0 | 0.0 | 0.00 | 0.00 | 0.00 | 99 | 1008.7 |
| 20260905121952 | 72 | 223 | 0.0 | 0.0 | 0.00 | 0.00 | 0.00 | 99 | 1008.9 |
| 20260905121433 | 72 | 223 | 0.0 | 0.0 | 0.00 | 0.00 | 0.00 | 99 | 1008.8 |
| 20260905120913 | 72 | 223 | 0.0 | 0.0 | 0.00 | 0.00 | 0.00 | 99 | 1008.8 |
| 20260905120333 | 71 | 223 | 0.0 | 0.0 | 0.00 | 0.00 | 0.00 | 99 | 1008.4 |
| 20260905115733 | 71 | 223 | 0.0 | 0.0 | 0.00 | 0.00 | 0.00 | 99 | 1008.8 |
| 20260905115133 | 71 | 223 | 0.0 | 0.0 | 0.00 | 0.00 | 0.00 | 99 | 1008.6 |
| 20260905114533 | 71 | 223 | 0.0 | 0.0 | 0.00 | 0.00 | 0.00 | 99 | 1008.5 |
| 20260905113933 | 71 | 223 | 0.0 | 0.0 | 0.00 | 0.00 | 0.00 | 99 | 1008.5 |
| 20260905112733 | 70 | 223 | 0.0 | 0.0 | 0.00 | 0.00 | 0.00 | 99 | 1008.6 |
| 20260905111624 | 70 | 223 | 0.0 | 0.0 | 0.00 | 0.00 | 0.00 | 99 | 1008.5 |
| 20260905110533 | 71 | 223 | 0.0 | 0.0 | 0.00 | 0.00 | 0.00 | 99 | 1008.3 |
| 20260905110025 | 71 | 223 | 0.0 | 0.0 | 0.00 | 0.00 | 0.00 | 99 | 1008.1 |
| 20260905105505 | 71 | 223 | 0.0 | 0.0 | 0.00 | 0.00 | 0.00 | 99 | 1008.4 |
| 20260905104933 | 71 | 223 | 0.0 | 0.0 | 0.00 | 0.00 | 0.00 | 99 | 1008.3 |
| 20260905103905 | 71 | 223 | 0.0 | 0.0 | 0.00 | 0.00 | 0.00 | 99 | 1008.4 |
| 20260905103333 | 71 | 223 | 0.0 | 0.0 | 0.00 | 0.00 | 0.00 | 99 | 1008.3 |
| 20260905102733 | 71 | 223 | 0.0 | 0.0 | 0.00 | 0.00 | 0.00 | 99 | 1008.2 |
| 20260905102133 | 71 | 223 | 0.0 | 0.0 | 0.00 | 0.00 | 0.00 | 99 | 1008.3 |
| 20260905101533 | 71 | 223 | 0.0 | 0.0 | 0.00 | 0.00 | 0.00 | 99 | 1008.2 |
| 20260905101016 | 71 | 223 | 0.0 | 0.0 | 0.00 | 0.00 | 0.00 | 99 | 1008.3 |
| 20260905095933 | 71 | 223 | 0.0 | 0.0 | 0.00 | 0.00 | 0.00 | 99 | 1008.3 |
| 20260905095417 | 71 | 223 | 0.0 | 0.0 | 0.00 | 0.00 | 0.00 | 99 | 1008.3 |
| 20260905094333 | 71 | 223 | 0.0 | 0.0 | 0.00 | 0.00 | 0.00 | 99 | 1008.2 |
| 20260905093817 | 72 | 223 | 0.0 | 0.0 | 0.00 | 0.00 | 0.00 | 99 | 1008.2 |
| 20260905093257 | 72 | 223 | 0.0 | 0.0 | 0.00 | 0.00 | 0.00 | 99 | 1008.2 |
| 20260905092733 | 72 | 223 | 0.0 | 0.0 | 0.00 | 0.00 | 0.00 | 99 | 1007.9 |
| 20260905092133 | 72 | 223 | 0.0 | 0.0 | 0.00 | 0.00 | 0.00 | 99 | 1008.0 |
| 20260905090933 | 72 | 223 | 0.0 | 0.0 | 0.00 | 0.00 | 0.00 | 99 | 1008.0 |
| 20260905090333 | 72 | 223 | 0.0 | 0.0 | 0.00 | 0.00 | 0.00 | 99 | 1008.2 |
| 20260905085733 | 72 | 223 | 0.0 | 0.0 | 0.00 | 0.00 | 0.00 | 99 | 1008.0 |
| 20260905085133 | 72 | 223 | 0.0 | 0.0 | 0.00 | 0.00 | 0.00 | 99 | 1008.1 |
| 20260905084533 | 72 | 224 | 0.0 | 0.0 | 0.00 | 0.00 | 0.00 | 99 | 1008.0 |
| 20260905083933 | 72 | 223 | 0.0 | 0.0 | 0.00 | 0.00 | 0.00 | 99 | 1008.0 |
| 20260905082733 | 72 | 214 | 0.0 | 0.0 | 0.00 | 0.00 | 0.00 | 99 | 1008.2 |
| 20260905082133 | 72 | 214 | 0.0 | 0.0 | 0.00 | 0.00 | 0.00 | 99 | 1007.7 |
| 20260905081533 | 72 | 214 | 0.0 | 0.0 | 0.00 | 0.00 | 0.00 | 99 | 1007.8 |
| 20260905080933 | 72 | 214 | 0.0 | 0.0 | 0.00 | 0.00 | 0.00 | 99 | 1007.7 |
| 20260905080333 | 72 | 214 | 0.0 | 0.0 | 0.00 | 0.00 | 0.00 | 99 | 1008.0 |
| 20260905075733 | 72 | 214 | 0.0 | 0.0 | 0.00 | 0.00 | 0.00 | 99 | 1007.9 |
| 20260905075133 | 72 | 214 | 0.0 | 0.0 | 0.00 | 0.00 | 0.00 | 99 | 1007.8 |
| 20260905074533 | 72 | 214 | 0.0 | 0.0 | 0.00 | 0.00 | 0.00 | 99 | 1007.8 |
| 20260905073933 | 72 | 214 | 0.0 | 0.0 | 0.00 | 0.00 | 0.00 | 99 | 1007.9 |
| 20260905073333 | 72 | 214 | 0.0 | 0.0 | 0.00 | 0.00 | 0.00 | 99 | 1007.9 |
| 20260905072733 | 72 | 214 | 0.0 | 0.0 | 0.00 | 0.00 | 0.00 | 99 | 1008.0 |
| 20260905072133 | 72 | 214 | 0.0 | 0.0 | 0.00 | 0.00 | 0.00 | 99 | 1007.8 |
| 20260905070933 | 72 | 214 | 0.0 | 0.0 | 0.00 | 0.00 | 0.00 | 99 | 1008.1 |
| 20260905070433 | 72 | 214 | 0.0 | 0.0 | 0.00 | 0.00 | 0.00 | 99 | 1008.1 |
| 20260905065833 | 72 | 214 | 0.0 | 0.0 | 0.00 | 0.00 | 0.00 | 99 | 1008.1 |
| 20260905065233 | 72 | 214 | 0.0 | 0.0 | 0.00 | 0.00 | 0.00 | 99 | 1008.0 |
| 20260905064133 | 73 | 214 | 0.0 | 0.0 | 0.00 | 0.00 | 0.00 | 99 | 1008.0 |
| 20260905063533 | 72 | 214 | 0.0 | 0.0 | 0.00 | 0.00 | 0.00 | 99 | 1008.2 |
| 20260905062933 | 72 | 214 | 0.0 | 0.0 | 0.00 | 0.00 | 0.00 | 99 | 1008.2 |
| 20260905062333 | 72 | 214 | 0.0 | 0.0 | 0.00 | 0.00 | 0.00 | 99 | 1008.2 |
| 20260905061733 | 72 | 214 | 0.0 | 0.0 | 0.00 | 0.00 | 0.00 | 99 | 1008.3 |
| 20260905061133 | 72 | 214 | 0.0 | 0.0 | 0.00 | 0.00 | 0.00 | 99 | 1008.6 |
| 20260905060617 | 72 | 214 | 0.0 | 0.0 | 0.00 | 0.00 | 0.00 | 99 | 1008.5 |
| 20260905060058 | 73 | 214 | 0.0 | 0.0 | 0.00 | 0.00 | 0.00 | 99 | 1008.3 |
| 20260905055534 | 73 | 214 | 0.0 | 0.0 | 0.00 | 0.00 | 0.00 | 99 | 1008.3 |
| 20260905055033 | 73 | 214 | 0.0 | 0.0 | 0.00 | 0.00 | 0.00 | 99 | 1008.4 |
| 20260905054513 | 73 | 214 | 0.0 | 0.0 | 0.00 | 0.00 | 0.00 | 99 | 1008.4 |
| 20260905053953 | 73 | 214 | 0.0 | 0.0 | 0.00 | 0.00 | 0.00 | 99 | 1008.3 |
| 20260905052913 | 74 | 214 | 0.0 | 0.0 | 0.00 | 0.00 | 0.00 | 99 | 1008.5 |
| 20260905052353 | 73 | 214 | 0.0 | 0.0 | 0.00 | 0.00 | 0.00 | 99 | 1008.5 |
| 20260905051833 | 73 | 214 | 0.0 | 0.0 | 0.00 | 0.00 | 0.00 | 99 | 1008.5 |
| 20260905051313 | 73 | 214 | 0.0 | 0.0 | 0.00 | 0.00 | 0.00 | 99 | 1008.6 |
| 20260905050753 | 73 | 214 | 0.0 | 0.0 | 0.00 | 0.00 | 0.00 | 99 | 1008.6 |
| 20260905050233 | 74 | 214 | 0.0 | 0.0 | 0.00 | 0.00 | 0.00 | 99 | 1008.5 |
| 20260905045713 | 74 | 214 | 0.0 | 0.0 | 0.00 | 0.00 | 0.00 | 99 | 1008.6 |
| 20260905045153 | 74 | 214 | 0.0 | 0.0 | 0.00 | 0.00 | 0.00 | 99 | 1008.6 |
| 20260905044633 | 74 | 214 | 0.0 | 0.0 | 0.00 | 0.00 | 0.00 | 99 | 1008.6 |
| 20260905044113 | 74 | 214 | 0.0 | 0.0 | 0.00 | 0.00 | 0.00 | 99 | 1008.7 |
| 20260905043554 | 74 | 214 | 0.0 | 0.0 | 0.00 | 0.00 | 0.00 | 99 | 1008.6 |
| 20260905043033 | 74 | 214 | 0.0 | 0.0 | 0.00 | 0.00 | 0.00 | 99 | 1008.6 |
| 20260905042514 | 74 | 214 | 0.0 | 0.0 | 0.00 | 0.00 | 0.00 | 99 | 1008.7 |
| 20260905041955 | 74 | 214 | 0.0 | 0.0 | 0.00 | 0.00 | 0.00 | 99 | 1008.8 |
| 20260905041433 | 74 | 214 | 0.0 | 0.0 | 0.00 | 0.00 | 0.00 | 99 | 1008.6 |
| 20260905040913 | 74 | 214 | 0.0 | 0.0 | 0.00 | 0.00 | 0.00 | 99 | 1008.8 |
| 20260905040353 | 74 | 214 | 0.0 | 0.0 | 0.00 | 0.00 | 0.00 | 99 | 1008.6 |
| 20260905035833 | 74 | 214 | 0.0 | 0.0 | 0.00 | 0.00 | 0.00 | 99 | 1008.8 |
| 20260905035313 | 74 | 214 | 0.0 | 0.0 | 0.00 | 0.00 | 0.00 | 99 | 1008.9 |
| 20260905034753 | 75 | 214 | 0.0 | 0.0 | 0.00 | 0.00 | 0.00 | 99 | 1008.7 |
| 20260905034233 | 75 | 214 | 0.0 | 0.0 | 0.00 | 0.00 | 0.00 | 99 | 1008.8 |
| 20260905033713 | 75 | 214 | 0.0 | 0.0 | 0.00 | 0.00 | 0.00 | 99 | 1008.8 |
| 20260905033153 | 75 | 214 | 0.0 | 0.0 | 0.00 | 0.00 | 0.00 | 99 | 1008.9 |
| 20260905032633 | 75 | 214 | 0.0 | 0.0 | 0.00 | 0.00 | 0.00 | 99 | 1008.8 |
| 20260905032114 | 75 | 214 | 0.0 | 0.0 | 0.00 | 0.00 | 0.00 | 99 | 1008.8 |
| 20260905031553 | 75 | 214 | 0.0 | 0.0 | 0.00 | 0.00 | 0.00 | 99 | 1009.0 |
| 20260905031034 | 75 | 214 | 0.0 | 0.0 | 0.00 | 0.00 | 0.00 | 99 | 1009.0 |
| 20260905030514 | 75 | 214 | 0.0 | 0.0 | 0.00 | 0.00 | 0.00 | 99 | 1009.1 |
| 20260905025954 | 75 | 214 | 0.0 | 0.0 | 0.00 | 0.00 | 0.00 | 99 | 1008.8 |
| 20260905025433 | 75 | 214 | 0.0 | 0.0 | 0.00 | 0.00 | 0.00 | 99 | 1008.8 |
| 20260905024914 | 75 | 214 | 0.0 | 0.0 | 0.00 | 0.00 | 0.00 | 99 | 1008.6 |
| 20260905024354 | 75 | 214 | 0.0 | 0.0 | 0.00 | 0.00 | 0.00 | 99 | 1008.6 |
| 20260905023834 | 75 | 214 | 0.0 | 0.0 | 0.00 | 0.00 | 0.00 | 99 | 1008.5 |
| 20260905023234 | 76 | 214 | 0.0 | 0.0 | 0.00 | 0.00 | 0.00 | 99 | 1008.5 |
| 20260905022634 | 76 | 214 | 0.0 | 0.0 | 0.00 | 0.00 | 0.00 | 99 | 1008.3 |
| 20260905022034 | 76 | 214 | 0.0 | 0.0 | 0.00 | 0.00 | 0.00 | 99 | 1008.3 |
| 20260905021434 | 77 | 214 | 0.0 | 0.0 | 0.00 | 0.00 | 0.00 | 99 | 1008.7 |
| 20260905020834 | 77 | 214 | 0.0 | 0.0 | 0.00 | 0.00 | 0.00 | 98 | 1008.4 |
| 20260905020234 | 77 | 214 | 0.0 | 0.0 | 0.00 | 0.00 | 0.00 | 98 | 1008.7 |
| 20260905015730 | 77 | 214 | 0.0 | 0.0 | 0.00 | 0.00 | 0.00 | 98 | 1008.6 |
| 20260905015210 | 77 | 214 | 0.0 | 0.0 | 0.00 | 0.00 | 0.00 | 98 | 1008.6 |
| 20260905014650 | 77 | 214 | 0.0 | 0.0 | 0.00 | 0.00 | 0.00 | 97 | 1008.5 |
| 20260905014133 | 77 | 214 | 0.0 | 0.0 | 0.00 | 0.00 | 0.00 | 97 | 1008.3 |
| 20260905013534 | 77 | 214 | 0.0 | 0.0 | 0.00 | 0.00 | 0.00 | 97 | 1008.3 |
| 20260905012934 | 77 | 214 | 0.0 | 0.0 | 0.00 | 0.00 | 0.00 | 96 | 1008.1 |
| 20260905012334 | 77 | 214 | 0.0 | 0.0 | 0.00 | 0.00 | 0.00 | 96 | 1008.3 |
| 20260905011733 | 78 | 214 | 0.0 | 0.0 | 0.00 | 0.00 | 0.00 | 96 | 1008.0 |
| 20260905011134 | 78 | 214 | 0.0 | 0.0 | 0.00 | 0.00 | 0.00 | 95 | 1008.2 |
| 20260905010534 | 79 | 214 | 0.0 | 0.0 | 0.00 | 0.00 | 0.00 | 95 | 1008.3 |
| 20260905010026 | 79 | 214 | 0.0 | 0.0 | 0.00 | 0.00 | 0.00 | 94 | 1007.9 |
| 20260905005506 | 79 | 214 | 0.0 | 0.0 | 0.00 | 0.00 | 0.00 | 94 | 1008.1 |
| 20260905004946 | 79 | 214 | 0.0 | 0.0 | 0.00 | 0.00 | 0.00 | 93 | 1007.9 |
| 20260905004426 | 80 | 214 | 0.0 | 0.0 | 0.00 | 0.00 | 0.00 | 92 | 1007.9 |
| 20260905003906 | 81 | 214 | 0.0 | 0.0 | 0.00 | 0.00 | 0.00 | 91 | 1007.9 |
| 20260905003346 | 81 | 213 | 0.0 | 0.0 | 0.00 | 0.00 | 0.00 | 90 | 1008.0 |
| 20260905002826 | 82 | 213 | 0.0 | 0.0 | 0.00 | 0.00 | 0.00 | 89 | 1007.7 |
| 20260905002306 | 82 | 213 | 0.0 | 0.0 | 0.00 | 0.00 | 0.00 | 88 | 1008.0 |
| 20260905001746 | 84 | 214 | 0.0 | 0.0 | 0.00 | 0.00 | 0.00 | 86 | 1007.8 |
| 20260905001226 | 84 | 213 | 0.0 | 0.0 | 0.00 | 0.00 | 0.00 | 84 | 1007.7 |
| 20260905000706 | 85 | 213 | 0.0 | 0.0 | 0.00 | 0.00 | 0.00 | 82 | 1007.8 |
| 20260904235626 | 88 | 213 | 0.0 | 0.0 | 0.00 | 0.00 | 0.00 | 75 | 1007.6 |
| 20260904235107 | 89 | 213 | 0.0 | 0.0 | 0.00 | 0.00 | 0.00 | 73 | 1007.8 |
| 20260904234546 | 90 | 213 | 0.0 | 0.0 | 0.00 | 0.00 | 0.00 | 72 | 1007.5 |
| 20260904234026 | 91 | 213 | 0.0 | 0.0 | 0.00 | 0.00 | 0.00 | 71 | 1007.8 |
| 20260904233506 | 92 | 213 | 0.0 | 0.0 | 0.00 | 0.00 | 0.00 | 68 | 1007.5 |
| 20260904232946 | 92 | 213 | 0.0 | 0.0 | 0.00 | 0.00 | 0.00 | 70 | 1007.8 |
| 20260904232426 | 93 | 213 | 0.0 | 0.0 | 0.00 | 0.00 | 0.00 | 68 | 1007.5 |
| 20260904231906 | 93 | 213 | 0.0 | 0.0 | 0.00 | 0.00 | 0.00 | 67 | 1007.7 |